Portada
METAR-TAF:

METAR-TAF

Aeroports :

Retalhuleu, Guatemala

latitud: 14-32N, longitud: 091-40W, altitud: 239 m

Observació

L'informe es va fer fa 25 minuts, a les 13:00 UTC
Vent calma
Temperatura 26°C
Humitat 84%
Pressió 1014 hPa
Visibilitat: 6000 m
Núvols disperses a una alçada de 8000 ft
calitja,

METAR: MGRT 191300Z 00000KT 6000 SCT080 26/23 Q1014 A2994 HZ VOL. STA MARIA Y SANTIAGUITO EN ACTIVIDAD

Hora: 07:25 (13:25 UTC)


TAF: manca

Observacions i pronòstics meteorològics de més de 4000 aeroports (METAR i TAF).

Les estacions disponibles són els punts grocs i vermells al mapa.

Posi el ratolí al punt desitjat per veure el nom de l'estació.

Feu clic per veure les observacions i els pronòstics meteorològics.

Per canviar el mapa: feu clic els botons verds amb una creu de color negre per apropar; al botó verd amb un guió per allunyar la imatge; o en les fletxes verdes per a mapes adjacents.


METAR-TAF: